Weather History for EHEH - May, 2013

Change the Weather History Date:

Sunday, May 12, 2013

  Actual Average Record
Temperature  
Mean Temperature 50 °F -  
Max Temperature 56 °F 66 °F 89 °F (1998)
Min Temperature 43 °F 48 °F 35 °F (2005)
Degree Days  
Heating Degree Days 16    
Moisture  
Dew Point 44 °F    
Average Humidity 82    
Maximum Humidity 100    
Minimum Humidity 64    
Precipitation  
Precipitation 0.08 in - - ()
Sea Level Pressure  
Sea Level Pressure 29.94 in    
Wind  
Wind Speed 10 mph ()    
Max Wind Speed 20 mph    
Max Gust Speed 29 mph    
Visibility 6.3 miles    
Events Rain    
Averages and records for this station are not official NWS values.
T = Trace of Precipitation, MM = Missing Value Source: Averaged Metar Reports

Daily Weather History Graph

Daily Weather History Graph

Search for Another Location

Airport or City:

Trip Planner

Search our weather history database for the weather conditions in past years. The results will help you decide how hot, cold, wet, or windy it might be!

Date:

Astronomy

May. 12, 2013 Rise Set
Actual Time 5:51 AM CEST 9:19 PM CEST
Civil Twilight 5:10 AM CEST 10:00 PM CEST
Nautical Twilight 4:16 AM CEST 10:55 PM CEST
Astronomical Twilight 2:59 AM CEST 12:14 AM CEST
Moon 7:29 AM CEST (5/12) 11:38 PM CEST (5/12)
Length of Visible Light 16h 49m
Length of Day
15h 27m
Waxing Crescent, 5% of the Moon is Illuminated
May 12
Waxing Crescent
May 18
First Quarter
May 25
Full
May 31
Last Quarter
Jun 8
New

Hourly Weather History & Observations

Time (CEST) Temp. Windchill Dew Point Humidity Pressure Visibility Wind Dir Wind Speed Gust Speed Precip Events Conditions
12:25 AM 51.8 °F - 41.0 °F 67% 29.86 in 6.2 mi SW 19.6 mph - N/A   Mostly Cloudy
12:55 AM 50.0 °F - 41.0 °F 71% 29.86 in 6.2 mi SW 17.3 mph 28.8 mph N/A   Light Drizzle
1:25 AM 50.0 °F - 41.0 °F 71% 29.86 in 6.2 mi SW 13.8 mph - N/A   Mostly Cloudy
1:47 AM 50.0 °F - 42.8 °F 76% 29.86 in 6.2 mi WSW 13.8 mph - N/A   Overcast
1:55 AM 50.0 °F - 42.8 °F 76% 29.86 in 6.2 mi WSW 13.8 mph - N/A Rain Light Rain
2:00 AM 49 °F - 43 °F 74% 29.86 in 14 mi SW 13.4 mph - - Rain Light Rain
2:25 AM 46.4 °F 41.5 °F 42.8 °F 87% 29.86 in 6.2 mi WNW 10.4 mph - N/A Rain Light Rain Showers
2:26 AM 46.4 °F 41.9 °F 42.8 °F 87% 29.86 in 6.2 mi WNW 9.2 mph - N/A Rain Rain Showers
2:42 AM 44.6 °F 40.2 °F 42.8 °F 93% 29.86 in 6.2 mi WNW 8.1 mph - N/A Rain Light Rain Showers
2:55 AM 44.6 °F 40.7 °F 42.8 °F 93% 29.86 in 6.2 mi WNW 6.9 mph - N/A Rain Light Rain Showers
3:25 AM 44.6 °F 43.1 °F 42.8 °F 93% 29.86 in 3.1 mi West 3.5 mph - N/A Rain Rain Showers
3:36 AM 44.6 °F 43.1 °F 42.8 °F 93% 29.86 in 6.2 mi WSW 3.5 mph - N/A Rain Light Rain
3:55 AM 44.6 °F 43.1 °F 42.8 °F 93% 29.83 in 6.2 mi WSW 3.5 mph - N/A   Overcast
4:25 AM 44.6 °F - 42.8 °F 93% 29.83 in 6.2 mi SSW 2.3 mph - N/A   Overcast
4:30 AM 44.6 °F 43.1 °F 42.8 °F 93% 29.83 in 6.2 mi South 3.5 mph - N/A   Mostly Cloudy
4:55 AM 44.6 °F 43.1 °F 42.8 °F 93% 29.83 in 6.2 mi North 3.5 mph - N/A   Mostly Cloudy
4:56 AM 44.6 °F 43.1 °F 42.8 °F 93% 29.83 in 6.2 mi NW 3.5 mph - N/A   Mostly Cloudy
5:00 AM 44 °F - 43 °F 97% 29.85 in 28 mi 2.2 mph - -   Partly Cloudy
5:03 AM 44.6 °F - 42.8 °F 93% 29.83 in 6.2 mi West 2.3 mph - N/A   Mostly Cloudy
5:10 AM 44.6 °F 43.1 °F 42.8 °F 93% 29.83 in 6.2 mi WSW 3.5 mph - N/A   Mostly Cloudy
5:17 AM 44.6 °F 43.1 °F 44.6 °F 100% 29.83 in 6.2 mi WSW 3.5 mph - N/A   Drizzle
5:25 AM 44.6 °F 39.7 °F 42.8 °F 93% 29.83 in 6.2 mi WNW 9.2 mph - N/A Rain Light Rain
5:39 AM 44.6 °F 40.2 °F 42.8 °F 93% 29.86 in 6.2 mi WNW 8.1 mph - N/A   Mostly Cloudy
5:55 AM 44.6 °F 40.2 °F 42.8 °F 93% 29.86 in 6.2 mi West 8.1 mph - N/A   Overcast
6:25 AM 44.6 °F 40.2 °F 42.8 °F 93% 29.86 in 6.2 mi West 8.1 mph - N/A   Mostly Cloudy
6:38 AM 44.6 °F 40.7 °F 42.8 °F 93% 29.86 in 6.2 mi WSW 6.9 mph - N/A   Overcast
6:44 AM 44.6 °F 38.8 °F 41.0 °F 87% 29.86 in 6.2 mi West 11.5 mph - N/A Rain Rain Showers
6:48 AM 44.6 °F 38.4 °F 42.8 °F 93% 29.86 in 5.6 mi West 12.7 mph - N/A Rain Light Rain Showers
6:55 AM 44.6 °F 38.8 °F 41.0 °F 87% 29.86 in 6.2 mi WSW 11.5 mph - N/A Rain Rain Showers
7:03 AM 44.6 °F 39.7 °F 41.0 °F 87% 29.86 in 6.2 mi WSW 9.2 mph - N/A   Mostly Cloudy
7:25 AM 44.6 °F 39.2 °F 42.8 °F 93% 29.89 in 6.2 mi WSW 10.4 mph - N/A Rain Light Rain Showers
7:55 AM 44.6 °F 39.7 °F 42.8 °F 93% 29.89 in 6.2 mi WSW 9.2 mph - N/A   Mostly Cloudy
8:00 AM 45 °F - 43 °F 88% 29.91 in 22 mi WSW 8.9 mph - - Rain Rain
8:11 AM 44.6 °F 39.2 °F 42.8 °F 93% 29.89 in 6.2 mi WSW 10.4 mph - N/A   Mostly Cloudy
8:12 AM 44.6 °F 39.7 °F 42.8 °F 93% 29.89 in 6.2 mi WSW 9.2 mph - N/A   Overcast
8:25 AM 44.6 °F 39.2 °F 42.8 °F 93% 29.89 in 6.2 mi SW 10.4 mph - N/A   Partly Cloudy
8:26 AM 46.4 °F 41.5 °F 44.6 °F 93% 29.89 in 6.2 mi SW 10.4 mph - N/A   Scattered Clouds
8:36 AM 46.4 °F 41.1 °F 42.8 °F 87% 29.89 in 6.2 mi SW 11.5 mph - N/A   Partly Cloudy
8:55 AM 48.2 °F - 44.6 °F 87% 29.92 in 6.2 mi SW 11.5 mph - N/A   Scattered Clouds
9:01 AM 48.2 °F - 44.6 °F 87% 29.92 in 6.2 mi WSW 10.4 mph - N/A   Scattered Clouds
9:04 AM 48.2 °F - 44.6 °F 87% 29.92 in 6.2 mi WSW 11.5 mph - N/A   Partly Cloudy
9:08 AM 48.2 °F - 44.6 °F 87% 29.92 in 6.2 mi SW 12.7 mph - N/A   Scattered Clouds
9:13 AM 48.2 °F - 44.6 °F 87% 29.92 in 6.2 mi SW 12.7 mph - N/A   Mostly Cloudy
9:15 AM 48.2 °F - 44.6 °F 87% 29.92 in 6.2 mi WSW 12.7 mph - N/A   Mostly Cloudy
9:25 AM 50.0 °F - 44.6 °F 82% 29.92 in 6.2 mi WSW 11.5 mph - N/A   Mostly Cloudy
9:33 AM 50.0 °F - 44.6 °F 82% 29.92 in 6.2 mi WSW 11.5 mph - N/A   Mostly Cloudy
9:42 AM 50.0 °F - 46.4 °F 87% 29.92 in 6.2 mi WSW 11.5 mph - N/A   Mostly Cloudy
9:47 AM 48.2 °F - 42.8 °F 82% 29.92 in 6.2 mi WSW 10.4 mph - N/A   Mostly Cloudy
9:48 AM 48.2 °F - 42.8 °F 82% 29.92 in 6.2 mi WSW 10.4 mph - N/A   Mostly Cloudy
9:55 AM 48.2 °F - 42.8 °F 82% 29.92 in 6.2 mi WSW 10.4 mph - N/A   Mostly Cloudy
9:57 AM 48.2 °F - 42.8 °F 82% 29.92 in 6.2 mi WSW 10.4 mph - N/A   Mostly Cloudy
10:01 AM 48.2 °F - 41.0 °F 76% 29.92 in 6.2 mi WSW 11.5 mph - N/A Rain Light Rain
10:05 AM 46.4 °F 39.8 °F 41.0 °F 81% 29.92 in 6.2 mi WSW 16.1 mph - N/A   Mostly Cloudy
10:12 AM 50.0 °F - 44.6 °F 82% 29.92 in 6.2 mi WSW 15.0 mph - N/A   Mostly Cloudy
10:25 AM 48.2 °F - 42.8 °F 82% 29.92 in 6.2 mi SW 12.7 mph - N/A   Mostly Cloudy
10:43 AM 50.0 °F - 42.8 °F 76% 29.92 in 6.2 mi SW 11.5 mph - N/A   Mostly Cloudy
10:55 AM 51.8 °F - 42.8 °F 71% 29.95 in 6.2 mi WSW 11.5 mph 25.3 mph N/A   Mostly Cloudy
11:00 AM 52 °F - 44 °F 66% 29.95 in 22 mi WSW 13.4 mph - - Rain Rain
11:12 AM 51.8 °F - 42.8 °F 71% 29.95 in 6.2 mi WSW 16.1 mph - N/A   Scattered Clouds
11:15 AM 51.8 °F - 42.8 °F 71% 29.95 in 6.2 mi WSW 16.1 mph - N/A   Mostly Cloudy
11:25 AM 51.8 °F - 42.8 °F 71% 29.95 in 6.2 mi WSW 13.8 mph - N/A Rain Light Rain
11:33 AM 50.0 °F - 42.8 °F 76% 29.95 in 6.2 mi WSW 16.1 mph - N/A   Mostly Cloudy
11:41 AM 51.8 °F - 42.8 °F 71% 29.95 in 6.2 mi WSW 12.7 mph - N/A   Mostly Cloudy
11:55 AM 51.8 °F - 42.8 °F 71% 29.95 in 6.2 mi WSW 11.5 mph - N/A   Mostly Cloudy
11:58 AM 51.8 °F - 42.8 °F 71% 29.95 in 6.2 mi WSW 12.7 mph - N/A   Mostly Cloudy
12:02 PM 53.6 °F - 44.6 °F 72% 29.95 in 6.2 mi SW 12.7 mph - N/A   Mostly Cloudy
12:05 PM 53.6 °F - 44.6 °F 72% 29.95 in 6.2 mi SW 12.7 mph - N/A   Mostly Cloudy
12:25 PM 48.2 °F - 44.6 °F 87% 29.95 in 6.2 mi WSW 16.1 mph - N/A Rain Light Rain
12:28 PM 48.2 °F - 46.4 °F 93% 29.95 in 5.0 mi WSW 15.0 mph - N/A Rain Light Rain
12:30 PM 48.2 °F - 46.4 °F 93% 29.95 in 6.2 mi WSW 13.8 mph - N/A Rain Rain
12:37 PM 48.2 °F - 46.4 °F 93% 29.95 in 4.3 mi WSW 13.8 mph - N/A Rain Light Rain
12:41 PM 48.2 °F - 44.6 °F 87% 29.98 in 6.2 mi WSW 15.0 mph - N/A Rain Light Rain Showers
12:44 PM 48.2 °F - 44.6 °F 87% 29.98 in 3.7 mi WSW 13.8 mph - N/A Rain Light Rain Showers
12:48 PM 48.2 °F - 46.4 °F 93% 29.98 in 5.6 mi WSW 12.7 mph - N/A Rain Light Rain
12:55 PM 48.2 °F - 44.6 °F 87% 29.98 in 6.2 mi WSW 11.5 mph - N/A Rain Light Rain
1:08 PM 51.8 °F - 46.4 °F 82% 29.98 in 6.2 mi WSW 9.2 mph - N/A   Mostly Cloudy
1:12 PM 51.8 °F - 46.4 °F 82% 29.98 in 6.2 mi WSW 10.4 mph - N/A   Mostly Cloudy
1:16 PM 51.8 °F - 46.4 °F 82% 29.98 in 6.2 mi West 10.4 mph - N/A   Mostly Cloudy
1:25 PM 50.0 °F - 44.6 °F 82% 29.98 in 6.2 mi WSW 10.4 mph - N/A   Mostly Cloudy
1:26 PM 51.8 °F - 46.4 °F 82% 29.98 in 6.2 mi West 8.1 mph - N/A   Mostly Cloudy
1:55 PM 51.8 °F - 44.6 °F 76% 29.98 in 6.2 mi West 13.8 mph - N/A   Mostly Cloudy
2:00 PM 54 °F - 46 °F 67% 29.99 in 22 mi West 11.2 mph - -   Partly Cloudy
2:04 PM 53.6 °F - 48.2 °F 82% 29.98 in 6.2 mi West 11.5 mph - N/A   Mostly Cloudy
2:08 PM 55.4 °F - 46.4 °F 72% 29.98 in 6.2 mi West 12.7 mph - N/A   Mostly Cloudy
2:15 PM 53.6 °F - 42.8 °F 67% 29.98 in 6.2 mi West 12.7 mph - N/A   Mostly Cloudy
2:25 PM 53.6 °F - 46.4 °F 77% 29.98 in 6.2 mi West 11.5 mph - N/A   Mostly Cloudy
2:35 PM 55.4 °F - 44.6 °F 67% 29.98 in 6.2 mi West 12.7 mph - N/A   Mostly Cloudy
2:55 PM 55.4 °F - 44.6 °F 67% 29.98 in 6.2 mi West 11.5 mph - N/A   Mostly Cloudy
3:11 PM 51.8 °F - 46.4 °F 82% 29.98 in 6.2 mi West 10.4 mph - N/A Rain Light Rain
3:15 PM 51.8 °F - 46.4 °F 82% 29.98 in 6.2 mi West 9.2 mph - N/A Rain Light Rain
3:20 PM 53.6 °F - 48.2 °F 82% 29.98 in 6.2 mi West 9.2 mph - N/A   Mostly Cloudy
3:25 PM 53.6 °F - 46.4 °F 77% 29.98 in 6.2 mi West 9.2 mph - N/A   Scattered Clouds
3:29 PM 53.6 °F - 44.6 °F 72% 29.98 in 6.2 mi West 10.4 mph - N/A   Scattered Clouds
3:39 PM 51.8 °F - 46.4 °F 82% 29.98 in 6.2 mi WSW 12.7 mph - N/A Rain Light Rain
3:43 PM 51.8 °F - 46.4 °F 82% 29.98 in 6.2 mi WSW 11.5 mph - N/A Rain Light Rain
3:47 PM 53.6 °F - 48.2 °F 82% 29.98 in 6.2 mi WSW 10.4 mph - N/A   Overcast
3:55 PM 55.4 °F - 48.2 °F 77% 29.98 in 6.2 mi West 15.0 mph - N/A   Overcast
4:04 PM 53.6 °F - 46.4 °F 77% 29.98 in 6.2 mi West 18.4 mph - N/A   Mostly Cloudy
4:25 PM 53.6 °F - 46.4 °F 77% 29.98 in 6.2 mi WSW 18.4 mph - N/A   Mostly Cloudy
4:34 PM 51.8 °F - 46.4 °F 82% 30.01 in 6.2 mi West 17.3 mph - N/A   Mostly Cloudy
4:38 PM 51.8 °F - 46.4 °F 82% 30.01 in 6.2 mi West 16.1 mph - N/A   Mostly Cloudy
4:46 PM 53.6 °F - 48.2 °F 82% 30.01 in 6.2 mi West 15.0 mph - N/A Rain Light Rain
4:55 PM 51.8 °F - 44.6 °F 76% 30.01 in 6.2 mi West 12.7 mph - N/A   Mostly Cloudy
5:00 PM 52 °F - 46 °F 74% 30.02 in 15 mi West 15.7 mph - - Rain Rain
5:25 PM 51.8 °F - 44.6 °F 76% 30.01 in 6.2 mi West 15.0 mph - N/A   Mostly Cloudy
5:35 PM 51.8 °F - 44.6 °F 76% 30.01 in 6.2 mi West 13.8 mph - N/A   Overcast
5:45 PM 51.8 °F - 46.4 °F 82% 30.01 in 6.2 mi West 12.7 mph - N/A   Mostly Cloudy
5:55 PM 51.8 °F - 44.6 °F 76% 30.01 in 6.2 mi West 15.0 mph - N/A   Overcast
6:17 PM 53.6 °F - 44.6 °F 72% 30.01 in 6.2 mi West 10.4 mph - N/A   Mostly Cloudy
6:25 PM 53.6 °F - 44.6 °F 72% 30.01 in 6.2 mi West 10.4 mph - N/A   Mostly Cloudy
6:29 PM 53.6 °F - 44.6 °F 72% 30.01 in 6.2 mi WSW 10.4 mph - N/A   Overcast
6:44 PM 53.6 °F - 44.6 °F 72% 30.01 in 6.2 mi West 8.1 mph - N/A   Mostly Cloudy
6:55 PM 53.6 °F - 44.6 °F 72% 30.01 in 6.2 mi West 6.9 mph - N/A   Mostly Cloudy
7:25 PM 53.6 °F - 42.8 °F 67% 30.01 in 6.2 mi West 6.9 mph - N/A   Overcast
7:39 PM 51.8 °F - 44.6 °F 76% 30.01 in 6.2 mi SW 9.2 mph - N/A Rain Light Rain
7:43 PM 51.8 °F - 44.6 °F 76% 30.01 in 6.2 mi SW 10.4 mph - N/A   Overcast
7:55 PM 51.8 °F - 46.4 °F 82% 30.01 in 6.2 mi SW 8.1 mph - N/A Rain Light Rain
8:00 PM 52 °F - 46 °F 73% 30.02 in 12 mi SW 6.7 mph - - Rain Light Rain Showers
8:25 PM 51.8 °F - 46.4 °F 82% 30.01 in 6.2 mi SSW 4.6 mph - N/A   Overcast
8:55 PM 50.0 °F - 44.6 °F 82% 30.01 in 6.2 mi SSW 5.8 mph - N/A   Mostly Cloudy
9:00 PM 50.0 °F - 44.6 °F 82% 30.01 in 6.2 mi SSW 5.8 mph - N/A   Overcast
9:25 PM 50.0 °F - 44.6 °F 82% 30.01 in 6.2 mi South 5.8 mph - N/A   Overcast
9:55 PM 50.0 °F - 44.6 °F 82% 30.01 in 6.2 mi South 6.9 mph - N/A   Mostly Cloudy
10:25 PM 50.0 °F - 42.8 °F 76% 30.01 in 6.2 mi SSW 6.9 mph - N/A   Mostly Cloudy
10:55 PM 50.0 °F - 42.8 °F 76% 30.01 in 6.2 mi SSW 6.9 mph - N/A   Mostly Cloudy
11:00 PM 50 °F - 42 °F 64% 30.02 in 25 mi SW 8.9 mph - -   Mostly Cloudy
11:04 PM 50.0 °F - 41.0 °F 71% 30.01 in 6.2 mi SW 8.1 mph - N/A   Mostly Cloudy
11:25 PM 50.0 °F - 41.0 °F 71% 30.01 in 6.2 mi SW 9.2 mph - N/A   Mostly Cloudy
11:55 PM 50.0 °F - 41.0 °F 71% 30.01 in 6.2 mi SW 12.7 mph - N/A   Mostly Cloudy